Flag for Canada Weather past 2 weeks in Riverview, New Brunswick, Canada

Now
32 °F

Sunny.


Feels Like: 22 °F
Forecast: N/A
Wind: 15 mph from Northwest

Location: Moncton

Current Time: Apr 1, 2015 at 6:42:54 PM

Latest Report: Apr 1, 2015 at 6:00 PM


Visibility: 15 mi

Pressure: 29.78 "Hg

Humidity: 29%

Dew point: 3 °F

Location of RiverviewLocation

Historic Weather in Riverview — Graph

°F

Riverview temperature yesterday

Maximum temperature yesterday: 39 °F (at 2:00 PM)
Minimum temperature yesterday: 30 °F (at 2:00 AM)
Average temperature yesterday: 34 °F

Past Weeks' High & Low Weather Summary

 TemperatureHumidityPressure
High45 °F (Mar 26, 2:00 PM)100% (Mar 27, 12:00 AM)30.31 "Hg (Mar 27, 12:00 AM)
Low5 °F (Mar 23, 3:00 AM)27% (Mar 29, 2:00 PM)29.21 "Hg (Mar 18, 4:00 AM)
Average27 °F66%29.78 "Hg
* Reported Mar 17 5:00 PM — Apr 1 5:00 PM, Riverview, Weather by CustomWeather, © 2015

Note: Actual official high and low records may vary slightly from our data, if they occured in-between our weather recording intervals... More about our weather records

Advertising

Riverview weather history for previous 24 hours

 ConditionsComfort  
Time TempWeatherWind HumidityBarometerVisibility
5:00 PM
Wed, Apr 1
32 °FSunny.15 mph29%29.75 "Hg15 mi
4:00 PM32 °FSunny.17 mph32%29.74 "Hg15 mi
3:00 PM32 °FSunny.21 mph34%29.73 "Hg15 mi
2:00 PM32 °FSunny.21 mph32%29.73 "Hg15 mi
1:00 PM32 °FSunny.17 mph37%29.75 "Hg15 mi
12:00 PM30 °FSunny.12 mph40%29.78 "Hg15 mi
11:00 AM28 °FPassing clouds.14 mph37%29.79 "Hg15 mi
10:00 AM27 °FPassing clouds.10 mph46%29.79 "Hg15 mi
9:00 AM25 °FPassing clouds.12 mph54%29.78 "Hg15 mi
8:00 AM23 °FPassing clouds.8 mph58%29.76 "Hg15 mi
7:00 AM23 °FPassing clouds.9 mph58%29.73 "Hg15 mi
6:00 AM25 °FClear.9 mph59%29.71 "Hg15 mi
5:00 AM27 °FPassing clouds.8 mph59%29.70 "Hg15 mi
4:00 AM28 °FPassing clouds.7 mph59%29.69 "Hg15 mi
3:00 AM30 °FPassing clouds.8 mph59%29.68 "Hg15 mi
2:00 AM30 °FPassing clouds.10 mph64%29.68 "Hg15 mi
1:00 AM34 °FPassing clouds.10 mph60%29.67 "Hg15 mi
12:00 AM36 °FOvercast.13 mph60%29.67 "Hg15 mi
11:00 PM
Tue, Mar 31
36 °FOvercast.10 mph60%29.65 "Hg15 mi
10:00 PM36 °FOvercast.9 mph60%29.63 "Hg15 mi
9:00 PM37 °FMostly cloudy.15 mph60%29.59 "Hg15 mi
8:00 PM37 °FPartly sunny.8 mph65%29.55 "Hg15 mi
7:00 PM37 °FMostly cloudy.10 mph70%29.53 "Hg15 mi
6:00 PM37 °FBroken clouds.13 mph70%29.50 "Hg15 mi
Weather by CustomWeather, © 2015

See weather overviewHow to use our weather pages